sat.trackr.live / text

‹ back to catalog

STARLINK-5631

NORAD 55346 · 2023-013R

PAYLOAD ACTIVE UNKNOWN

§ Identity

Operator
Country
US
Launch date
2023-01-26
Launch site
AFETR
Launch vehicle
Mass (kg)
RCS (m²)

Purposes: comms

External: N2YO · Heavens-Above · Gunter

§ Orbital elements

Epoch: 2026-05-24T23:20:28.898880Z

Period
94.27 min
Inclination
43.0028°
Eccentricity
0.0001908
Mean motion
15.27575692 rev/d
Perigee alt
481.8 km
Apogee alt
484.4 km
Semi-major
6,861.2 km
B*
1.2801e-5
RAAN
232.2772°
Arg perigee
270.3265°
Mean anomaly
89.7368°
Rev number
18,334

§ Raw data

STARLINK-56311 55346U 23013R   26144.97255670  .00000090  00000+0  12801-4 0  99942 55346  43.0028 232.2772 0001908 270.3265  89.7368 15.27575692183349

JSON: /api/v1/satellites/55346 · /tle

For live sub-satellite position, see the globe view (requires WebGL).

§ Visibility from observer

Set your observer location to see the next 7 days of passes ≥ 10°. The values pass through the URL so the page stays shareable.

No JS? Fill the form by hand. The geolocation button needs JavaScript.